Regional Weather Roundup
Issued by NWS

Home | Current Version | Previous Version | Text Only | Print | Product List | Glossary Off
Versions: 1 2 3 4 5 6 7 8 9 10 11 12 13 14 15 16 17 18 19 20 21 22 23 24 25 26 27 28 29 30 31 32 33 34 35 36 37 38 39 40 41 42 43 44 45 46 47 48 49 50

000
ASUS45 KPSR 010500
RWRAZ

PRELIMINARY ARIZONA REGIONAL HOURLY WEATHER ROUNDUP
NATIONAL WEATHER SERVICE PHOENIX AZ
1000 PM MST SAT FEB 28 2015

NOTE: FAIR INDICATES FEW OR NO CLOUDS BELOW 12,000 FEET WITH NO
SIGNIFICANT WEATHER AND/OR OBSTRUCTIONS TO VISIBILITY.

AZZ001>003-036-010600-
NORTHWEST ARIZONA

CITY           SKY/WX    TMP DP  RH WIND       PRES   REMARKS
KINGMAN        MOCLDY    49  31  49 S9        29.87R
$$

AZZ004>008-015-016-018-010600-
NORTH CENTRAL ARIZONA

CITY           SKY/WX    TMP DP  RH WIND       PRES   REMARKS
GRAND CANYON   CLOUDY    34  29  82 CALM      29.92R
PRESCOTT       CLOUDY    46  32  58 S7        29.93R
FLAGSTAFF      NOT AVBL
PAYSON         MIX PCPN  45  43  93 S5        29.99R
PAGE           CLOUDY    41  34  76 N6        29.91R
$$

AZZ009>014-017-010600-
NORTHEAST ARIZONA

CITY           SKY/WX    TMP DP  RH WIND       PRES   REMARKS
WINSLOW        NOT AVBL
SAINT JOHNS    MOCLDY    45  37  73 W5        29.95R
WINDOW ROCK    MOCLDY    37  32  82 VRB5      29.97R WCI  33
SHOW LOW       CLOUDY    39  36  87 SW18G33   29.97R WCI  30
$$

AZZ023-010600-
GREATER PHOENIX AREA

CITY           SKY/WX    TMP DP  RH WIND       PRES   REMARKS
PHOENIX        CLOUDY    65  46  50 S7        29.87R
DEER VALLEY    MOCLDY    60  47  61 CALM      29.89R
SCOTTSDALE     MOCLDY    60  50  69 CALM      29.90R
$$

AZZ027-028-010600-
SOUTHWEST MARICOPA COUNTY AND PINAL COUNTY

CITY           SKY/WX    TMP DP  RH WIND       PRES   REMARKS
CASA GRANDE    CLOUDY    61  45  55 S8        29.91R
GILA BEND      MOCLDY    63  48  59 S10       29.90R
$$

AZZ503-504-507>509-010600-
SOUTHEAST ARIZONA

CITY           SKY/WX    TMP DP  RH WIND       PRES   REMARKS
TUCSON         CLOUDY    62  44  51 CALM      29.97R
DAVIS-MONTHAN  PTCLDY    58  44  60 SW2       29.95R
NOGALES        MOCLDY    59  44  57 S15       30.01R
SIERRA VISTA   MOCLDY    56  41  57 S9        30.03R
SAFFORD        CLOUDY    58  44  60 CALM      29.94R
$$

AZZ020-021-025-026-031-010600-
SOUTHWEST ARIZONA

CITY           SKY/WX    TMP DP  RH WIND       PRES   REMARKS
YUMA           MOCLDY    64  39  39 NW5       29.88R
$$

CAZ031-033-041-043-047-048-061-010600-
SOUTHERN CALIFORNIA

CITY           SKY/WX    TMP DP  RH WIND       PRES   REMARKS
DOWNTOWN L.A.  LGT RAIN  56  49  77 CALM      29.89S
L.A. AIRPORT   LGT RAIN  55  47  74 S8        29.90R
SAN DIEGO      MOCLDY    59  50  72 W5        29.92S
BURBANK        LGT RAIN  54  44  69 E3        29.88S
ONTARIO        MOCLDY    52  46  80 CALM      29.90R
RIVERSIDE      MOCLDY    54  45  71 NW3       29.90R
PALM SPRINGS   CLEAR     60  38  43 VRB3      29.87R
EL CENTRO NAS  CLEAR     61  40  45 SW13      29.87R
IMPERIAL       CLEAR     60  41  49 W18       29.85S
BLYTHE         PTCLDY    61  37  41 SE3       29.85R
$$

NVZ020-UTZ003-010600-
SOUTHERN NEVADA-UTAH

CITY           SKY/WX    TMP DP  RH WIND       PRES   REMARKS
LAS VEGAS      NOT AVBL
SALT LAKE CITY CLOUDY    35  33  92 SW5       29.90R WCI  31
$$

NMZ009-TXZ055-010600-
NEW MEXICO-WEST TEXAS

CITY           SKY/WX    TMP DP  RH WIND       PRES   REMARKS
ALBUQUERQUE    CLOUDY    33  30  88 NE6       30.00R WCI  28
EL PASO        CLEAR     59  29  31 VRB5      29.99R
$$


........................KEY........................
SKY/WX - SKY CONDITION/WEATHER
TMP    - TEMPERATURE IN FAHRENHEIT
DP     - DEW POINT IN FAHRENHEIT
RH     - RELATIVE HUMIDITY IN PERCENT
WIND   - DIRECTION AND SPEED IN MILES PER HOUR (MPH)
VRB    - VARIABLE WIND DIRECTION
PRES   - MEAN SEA LEVEL PRESSURE IN INCHES OF MERCURY
         F - FALLING PRESSURE   R - RISING PRESSURE
         S - STEADY PRESSURE
VSB    - VISIBILITY IN MILES
HX     - HEAT INDEX IN FAHRENHEIT
WCI    - WIND CHILL INDEX IN FAHRENHEIT
TC     - TEMPERATURE IN CELSIUS WHICH IS ALSO KNOWN AS
         TEMPERATURE IN CENTIGRADE
AFB    - AIR FORCE BASE
         LUKE AFB IS LUKE AIR FORCE BASE
         DAVIS-MONTHAN IS DAVIS-MONTHAN AIR FORCE BASE
NAS    - NAVAL AIR STATION
         EL CENTRO NAS IS EL CENTRO NAVAL AIR STATION
N/A    - NOT AVAILABLE



USA.gov is the U.S. government's official web portal to all federal, state and local government web resources and services.